EJU14WG LPPR-LSGG

Flight info

Callsign EJU14WG
Flight time N/A
Altitude 30000
Route BELDU DCT ADORO L155 ZMR N976 DGO T429 TOPTU DCT TOU DCT GAI DCT MEN DCT NINUN UN871 LTP UZ116 BELUS
Aircraft A320/M-SDE3FGHIRWY/LB1

Departure

Time 2026-05-04 09:52
Airport Francisco de Sá Carneiro Airport (LPPR)

Arrival

Time N/A
Airport Geneva International Airport (LSGG)
Time Latitude Longitude Altitude Speed Heading
2026-05-04 09:27 41.24019 -8.67309 235 ft 0 kts 89°
2026-05-04 09:44 41.24019 -8.67318 235 ft 2 kts 89°
2026-05-04 09:44 41.24018 -8.67340 239 ft 2 kts 89°
2026-05-04 09:44 41.24018 -8.67362 239 ft 2 kts 89°
2026-05-04 09:46 41.24043 -8.67423 238 ft 0 kts 165°
2026-05-04 09:49 41.23824 -8.67475 235 ft 7 kts 166°
2026-05-04 09:49 41.23762 -8.67458 237 ft 9 kts 169°
2026-05-04 09:49 41.23707 -8.67444 235 ft 7 kts 169°
2026-05-04 09:51 41.23594 -8.67741 235 ft 10 kts 268°
2026-05-04 09:51 41.23633 -8.67813 235 ft 11 kts 342°
2026-05-04 09:51 41.23758 -8.67847 234 ft 43 kts 349°
2026-05-04 09:51 41.24295 -8.67990 237 ft 111 kts 349°
2026-05-04 09:52 41.25232 -8.68232 249 ft 160 kts 348°
2026-05-04 09:52 41.26332 -8.68512 846 ft 162 kts 348°
2026-05-04 09:52 41.27452 -8.68812 1545 ft 166 kts 347°
2026-05-04 09:52 41.28627 -8.69126 2077 ft 180 kts 347°
2026-05-04 09:53 41.29910 -8.69465 2603 ft 196 kts 347°
2026-05-04 09:53 41.31313 -8.69830 3039 ft 215 kts 348°
2026-05-04 09:53 41.32838 -8.70227 3538 ft 232 kts 348°
2026-05-04 09:53 41.34483 -8.70658 4122 ft 249 kts 348°
2026-05-04 09:54 41.36220 -8.71117 4905 ft 258 kts 347°
2026-05-04 09:54 41.37990 -8.71582 5805 ft 261 kts 347°
2026-05-04 09:54 41.39797 -8.71756 6696 ft 265 kts
2026-05-04 09:54 41.41528 -8.70888 7507 ft 272 kts 33°
2026-05-04 09:55 41.42453 -8.69743 8025 ft 278 kts 51°
2026-05-04 09:55 41.43260 -8.67385 8795 ft 286 kts 76°
2026-05-04 09:55 41.43655 -8.64755 9526 ft 292 kts 77°
2026-05-04 09:55 41.44041 -8.62083 10257 ft 297 kts 77°
2026-05-04 09:56 41.44254 -8.59270 10693 ft 313 kts 89°
2026-05-04 09:56 41.44052 -8.56291 11063 ft 331 kts 97°
2026-05-04 09:56 41.43706 -8.53183 11406 ft 348 kts 97°
2026-05-04 09:56 41.43361 -8.49926 11836 ft 360 kts 97°
2026-05-04 09:57 41.43024 -8.46603 12499 ft 364 kts 96°
2026-05-04 09:57 41.42691 -8.43245 13182 ft 368 kts 96°
2026-05-04 09:57 41.42354 -8.39844 13850 ft 372 kts 97°
2026-05-04 09:57 41.42008 -8.36408 14430 ft 376 kts 97°
2026-05-04 09:58 41.41652 -8.32936 15013 ft 380 kts 97°
2026-05-04 09:58 41.41289 -8.29425 15580 ft 384 kts 97°
2026-05-04 09:58 41.40923 -8.25885 16133 ft 389 kts 97°
2026-05-04 10:00 41.38230 -7.99973 19812 ft 416 kts 97°
2026-05-04 10:00 41.37826 -7.96142 20312 ft 419 kts 97°
2026-05-04 10:02 41.36687 -7.68551 23612 ft 440 kts 81°
2026-05-04 10:04 41.39212 -7.39696 26020 ft 456 kts 82°
2026-05-04 10:04 41.39572 -7.35543 26348 ft 458 kts 82°
2026-05-04 10:04 41.39940 -7.31271 26680 ft 460 kts 82°
2026-05-04 10:04 41.40300 -7.27075 26972 ft 462 kts 82°
2026-05-04 10:05 41.40665 -7.22758 27284 ft 465 kts 82°
2026-05-04 10:05 41.41026 -7.18469 27584 ft 467 kts 82°
2026-05-04 10:05 41.41390 -7.14158 27874 ft 469 kts 82°
2026-05-04 10:05 41.41751 -7.09876 28178 ft 471 kts 82°
2026-05-04 10:06 41.42118 -7.05477 28470 ft 473 kts 82°
2026-05-04 10:06 41.42480 -7.01111 28744 ft 475 kts 82°
2026-05-04 10:06 41.42841 -6.96725 29013 ft 477 kts 82°
2026-05-04 10:08 41.44989 -6.70293 30056 ft 468 kts 83°
2026-05-04 10:08 41.45331 -6.65985 30051 ft 469 kts 83°
2026-05-04 10:08 41.46022 -6.57343 30048 ft 468 kts 83°
2026-05-04 10:09 41.46709 -6.48715 30044 ft 468 kts 83°
2026-05-04 10:09 41.47383 -6.40089 30044 ft 468 kts 84°
2026-05-04 10:10 41.48047 -6.31392 30027 ft 468 kts 84°
2026-05-04 10:10 41.48701 -6.22808 30029 ft 468 kts 84°
2026-05-04 10:11 41.49357 -6.14163 30018 ft 469 kts 84°
2026-05-04 10:11 41.50013 -6.05510 30015 ft 469 kts 84°
2026-05-04 10:12 41.50658 -5.96791 30011 ft 469 kts 85°
2026-05-04 10:12 41.51282 -5.88118 30018 ft 470 kts 85°
2026-05-04 10:13 41.51903 -5.79504 30015 ft 470 kts 85°
2026-05-04 10:13 41.52535 -5.70762 30016 ft 470 kts 85°
2026-05-04 10:14 41.53721 -5.62213 30009 ft 471 kts 71°
2026-05-04 10:16 41.64246 -5.30195 30016 ft 473 kts 66°
2026-05-04 10:16 41.66913 -5.22097 30012 ft 473 kts 66°
2026-05-04 10:17 41.69564 -5.14033 30010 ft 474 kts 66°
2026-05-04 10:19 41.80144 -4.81579 30000 ft 477 kts 67°
2026-05-04 10:19 41.82784 -4.73463 30018 ft 478 kts 67°
2026-05-04 10:20 41.85429 -4.65286 30019 ft 479 kts 68°
2026-05-04 10:20 41.88067 -4.57072 30021 ft 479 kts 68°
2026-05-04 10:21 41.90701 -4.48837 30020 ft 481 kts 68°
2026-05-04 10:21 41.93339 -4.40585 30016 ft 481 kts 68°
2026-05-04 10:22 41.97296 -4.28176 30025 ft 482 kts 69°
2026-05-04 10:23 41.99929 -4.19881 30030 ft 483 kts 69°
2026-05-04 10:25 42.11214 -3.86994 30020 ft 485 kts 66°
2026-05-04 10:25 42.14113 -3.78778 30011 ft 486 kts 67°
2026-05-04 10:26 42.16975 -3.70531 30019 ft 485 kts 67°
2026-05-04 10:26 42.19842 -3.62279 30011 ft 486 kts 67°
2026-05-04 10:27 42.22716 -3.54028 30012 ft 486 kts 67°
2026-05-04 10:27 42.25592 -3.45756 30008 ft 487 kts 68°
2026-05-04 10:28 42.28455 -3.37470 30015 ft 487 kts 68°
2026-05-04 10:28 42.31313 -3.29161 30013 ft 488 kts 68°
2026-05-04 10:29 42.34164 -3.20839 30018 ft 488 kts 68°
2026-05-04 10:29 42.37020 -3.12492 30008 ft 488 kts 68°
2026-05-04 10:30 42.39868 -3.04151 30012 ft 489 kts 68°
2026-05-04 10:30 42.42709 -2.95794 30002 ft 489 kts 68°
2026-05-04 10:31 42.44952 -2.87191 30001 ft 481 kts 83°
2026-05-04 10:32 42.45781 -2.55976 29978 ft 475 kts 94°
2026-05-04 10:33 42.45899 -2.47032 29980 ft 476 kts 94°
2026-05-04 10:33 42.45995 -2.38066 29992 ft 476 kts 95°
2026-05-04 10:34 42.46639 -2.29107 29987 ft 484 kts 81°
2026-05-04 10:34 42.48137 -2.20219 29979 ft 484 kts 81°
2026-05-04 10:35 42.49616 -2.11324 29977 ft 484 kts 81°
2026-05-04 10:35 42.50849 -2.03866 29982 ft 484 kts 81°
2026-05-04 10:36 42.52316 -1.94973 29973 ft 484 kts 81°
2026-05-04 10:36 42.53780 -1.86054 29973 ft 485 kts 81°
2026-05-04 10:37 42.55231 -1.77126 29972 ft 485 kts 81°
2026-05-04 10:37 42.56677 -1.68179 29977 ft 486 kts 81°
2026-05-04 10:39 42.61697 -1.36783 29967 ft 487 kts 82°
2026-05-04 10:40 42.63113 -1.27834 29962 ft 488 kts 82°
2026-05-04 10:40 42.64525 -1.18822 29960 ft 488 kts 82°
2026-05-04 10:41 42.65940 -1.09799 29961 ft 489 kts 82°
2026-05-04 10:41 42.67369 -1.00600 29972 ft 504 kts 82°
2026-05-04 10:42 42.68831 -0.91151 29969 ft 517 kts 82°
2026-05-04 10:42 42.70317 -0.81509 29967 ft 524 kts 82°
2026-05-04 10:43 42.71803 -0.71787 29971 ft 525 kts 82°
2026-05-04 10:45 42.77661 -0.32901 29969 ft 524 kts 82°
2026-05-04 10:45 42.79275 -0.23226 29966 ft 527 kts 73°
2026-05-04 10:46 42.82696 -0.14388 29962 ft 531 kts 53°
2026-05-04 10:46 42.87370 -0.06607 29964 ft 530 kts 51°
2026-05-04 10:47 42.92028 0.01180 29980 ft 530 kts 51°
2026-05-04 10:47 42.96677 0.08981 29972 ft 529 kts 51°
2026-05-04 10:49 43.15272 0.40248 29966 ft 530 kts 51°
2026-05-04 10:50 43.19911 0.48111 29966 ft 530 kts 51°
2026-05-04 10:52 43.38407 0.79640 29974 ft 530 kts 51°
2026-05-04 10:52 43.43019 0.87549 29971 ft 529 kts 51°
2026-05-04 10:54 43.61061 1.18743 29979 ft 530 kts 52°
2026-05-04 10:56 43.78884 1.51182 29982 ft 531 kts 54°
2026-05-04 10:57 43.83234 1.59436 29991 ft 530 kts 54°
2026-05-04 10:57 43.87618 1.67665 29984 ft 531 kts 54°
2026-05-04 10:58 43.91994 1.75904 29992 ft 531 kts 54°
2026-05-04 10:58 43.96343 1.84182 29983 ft 531 kts 55°
2026-05-04 10:59 44.00578 1.92572 29988 ft 530 kts 56°
2026-05-04 10:59 44.04730 2.01027 29985 ft 530 kts 56°
2026-05-04 11:00 44.08885 2.09495 29987 ft 530 kts 56°
2026-05-04 11:02 44.25548 2.43283 30007 ft 529 kts 56°
2026-05-04 11:05 44.56511 3.07185 30014 ft 528 kts 57°
2026-05-04 11:06 44.60601 3.15725 30021 ft 527 kts 57°
2026-05-04 11:06 44.64424 3.24503 30022 ft 526 kts 62°
2026-05-04 11:10 44.89120 3.87336 30028 ft 523 kts 62°
2026-05-04 11:12 45.03124 4.23203 30052 ft 520 kts 62°
2026-05-04 11:12 45.06586 4.32162 30054 ft 519 kts 63°
2026-05-04 11:13 45.10037 4.41124 30056 ft 518 kts 63°
2026-05-04 11:13 45.13488 4.50087 30062 ft 518 kts 63°